"read_dt","SO2 (ppb)","flags","PMT voltage (V)","lamp voltage (V)","lamp intensity (Hz)","internal temp (C)","react chamber temp (C)","sample flow (l/min)","pres (mmHg)","SO2 bkg (ppb)","SO2 coefficient"
2014-03-26 00:00:00,5153E-2,5C000490,-0724,1375,5118,021.3,045.1,0.165,745.6,01.17,0.508
2014-03-26 00:01:00,5205E-2,5C000490,-0724,1375,5157,021.3,045.1,0.165,745.6,01.17,0.508
2014-03-26 00:02:00,5206E-2,5C000490,-0724,1375,5097,021.3,045.1,0.165,745.6,01.17,0.508
2014-03-26 00:03:00,5164E-2,5C000490,-0724,1375,5131,021.3,045.1,0.165,745.7,01.17,0.508
2014-03-26 00:04:00,5190E-2,5C000490,-0724,1375,5139,021.3,045.1,0.165,745.6,01.17,0.508
2014-03-26 00:05:00,5256E-2,5C000490,-0724,1375,5123,021.3,045.1,0.165,745.6,01.17,0.508
2014-03-26 00:06:00,5206E-2,5C000490,-0724,1375,5081,021.3,045.1,0.166,745.6,01.17,0.508
2014-03-26 00:07:00,5214E-2,5C000490,-0724,1375,5094,021.3,045.1,0.165,745.6,01.17,0.508
2014-03-26 00:08:00,5177E-2,5C000490,-0724,1375,5124,021.3,045.1,0.165,745.6,01.17,0.508
2014-03-26 00:09:00,5226E-2,5C000490,-0724,1375,5119,021.3,045.1,0.165,745.6,01.17,0.508
2014-03-26 00:10:00,5158E-2,5C000490,-0724,1375,5071,021.3,045.1,0.165,745.7,01.17,0.508
2014-03-26 00:11:00,5163E-2,5C000490,-0724,1375,5086,021.3,045.1,0.165,745.6,01.17,0.508
2014-03-26 00:12:00,5255E-2,5C000490,-0724,1375,5045,021.3,045.1,0.165,745.6,01.17,0.508
2014-03-26 00:13:00,5296E-2,5C000490,-0724,1375,5078,021.3,045.1,0.165,745.6,01.17,0.508
2014-03-26 00:14:00,5211E-2,5C000490,-0724,1375,5025,021.3,045.1,0.165,745.6,01.17,0.508
2014-03-26 00:15:00,5183E-2,5C000490,-0724,1375,5821,021.3,045.1,0.165,745.6,01.17,0.508
2014-03-26 00:16:00,4988E-2,5C000490,-0724,1375,5792,021.3,045.1,0.165,745.6,01.17,0.508
2014-03-26 00:17:00,5013E-2,5C000490,-0724,1375,5833,021.3,045.1,0.165,745.6,01.17,0.508
2014-03-26 00:18:00,5000E-2,5C000490,-0724,1375,5837,021.3,045.1,0.166,745.5,01.17,0.508
2014-03-26 00:19:00,4998E-2,5C000490,-0724,1375,5938,021.3,045.1,0.165,745.6,01.17,0.508
2014-03-26 00:20:00,4982E-2,5C000490,-0724,1375,5865,021.3,045.1,0.166,745.6,01.17,0.508
2014-03-26 00:21:00,5010E-2,5C000490,-0724,1375,5902,021.3,045.1,0.165,745.5,01.17,0.508
2014-03-26 00:22:00,5005E-2,5C000490,-0724,1375,5801,021.3,045.1,0.166,745.5,01.17,0.508
2014-03-26 00:23:00,4980E-2,5C000490,-0724,1375,5847,021.3,045.1,0.165,745.5,01.17,0.508
2014-03-26 00:24:00,4989E-2,5C000490,-0724,1375,5804,021.3,045.1,0.166,745.5,01.17,0.508
2014-03-26 00:25:00,5020E-2,5C000490,-0724,1375,5828,021.3,045.1,0.166,745.5,01.17,0.508
2014-03-26 00:26:00,5043E-2,5C000490,-0724,1375,5879,021.3,045.1,0.166,745.5,01.17,0.508
2014-03-26 00:27:00,5033E-2,5C000490,-0724,1375,5756,021.3,045.1,0.166,745.5,01.17,0.508
2014-03-26 00:28:00,5036E-2,5C000490,-0724,1375,5694,021.3,045.1,0.166,745.5,01.17,0.508
2014-03-26 00:29:00,4995E-2,5C000490,-0724,1375,5631,021.3,045.1,0.165,745.6,01.17,0.508
2014-03-26 00:30:00,4980E-2,5C000490,-0724,1375,5617,021.3,045.1,0.165,745.5,01.17,0.508
2014-03-26 00:31:00,5028E-2,5C000490,-0724,1375,5638,021.3,045.2,0.165,745.5,01.17,0.508
2014-03-26 00:32:00,5029E-2,5C000490,-0724,1375,5716,021.3,045.1,0.166,745.5,01.17,0.508
2014-03-26 00:33:00,5025E-2,5C000490,-0724,1375,5586,021.3,045.1,0.165,745.4,01.17,0.508
2014-03-26 00:34:00,4989E-2,5C000490,-0724,1375,5696,021.3,045.1,0.165,745.5,01.17,0.508
2014-03-26 00:35:00,5041E-2,5C000490,-0724,1375,5628,021.3,045.1,0.166,745.5,01.17,0.508
2014-03-26 00:36:00,5073E-2,5C000490,-0724,1375,5563,021.3,045.1,0.165,745.5,01.17,0.508
2014-03-26 00:37:00,4992E-2,5C000490,-0724,1375,5527,021.3,045.1,0.165,745.5,01.17,0.508
2014-03-26 00:38:00,4992E-2,5C000480,-0724,1218,10468,021.3,045.1,0.166,745.5,01.17,0.508
2014-03-26 00:39:00,4700E-2,5C000410,-0724,1112,9459,021.3,045.1,0.166,745.4,01.17,0.508
2014-03-26 00:40:00,4451E-2,5C000410,-0724,1110,9493,021.3,045.1,0.165,745.4,01.17,0.508
2014-03-26 00:41:00,4528E-2,5C000410,-0724,1113,9343,021.3,045.1,0.165,745.5,01.17,0.508
2014-03-26 00:42:00,4514E-2,5C000410,-0724,1116,9329,021.3,045.1,0.165,745.5,01.17,0.508
2014-03-26 00:43:00,4514E-2,5C000410,-0724,1119,9369,021.3,045.1,0.165,745.4,01.17,0.508
2014-03-26 00:44:00,4559E-2,5C000410,-0724,1124,9196,021.3,045.1,0.165,745.4,01.17,0.508
2014-03-26 00:45:00,4606E-2,5C000410,-0724,1126,9228,021.3,045.1,0.165,745.5,01.17,0.508
2014-03-26 00:46:00,4587E-2,5C000410,-0724,1129,9136,021.3,045.1,0.165,745.5,01.17,0.508
2014-03-26 00:47:00,4597E-2,5C000410,-0724,1132,9265,021.3,045.1,0.165,745.4,01.17,0.508
2014-03-26 00:48:00,4540E-2,5C000410,-0724,1133,9249,021.3,045.1,0.165,745.5,01.17,0.508
2014-03-26 00:49:00,4610E-2,5C000410,-0724,1137,9109,021.3,045.2,0.165,745.6,01.17,0.508
2014-03-26 00:50:00,4590E-2,5C000410,-0724,1140,9172,021.3,045.2,0.165,745.5,01.17,0.508
2014-03-26 00:51:00,4721E-2,5C000410,-0724,1140,9078,021.3,045.1,0.165,745.4,01.17,0.508
2014-03-26 00:52:00,4641E-2,5C000410,-0724,1142,9172,021.3,045.2,0.165,745.5,01.17,0.508
2014-03-26 00:53:00,4627E-2,5C000410,-0724,1146,9082,021.3,045.1,0.165,745.5,01.17,0.508
2014-03-26 00:54:00,4698E-2,5C000410,-0724,1147,9024,021.3,045.1,0.165,745.4,01.17,0.508
2014-03-26 00:55:00,4623E-2,5C000410,-0724,1149,9103,021.3,045.1,0.165,745.5,01.17,0.508
2014-03-26 00:56:00,4659E-2,5C000410,-0724,1149,9097,021.3,045.1,0.165,745.5,01.17,0.508
2014-03-26 00:57:00,4670E-2,5C000410,-0724,1151,8672,021.3,045.1,0.165,745.5,01.17,0.508
2014-03-26 00:58:00,4632E-2,5C000410,-0724,1155,9020,021.3,045.1,0.165,745.4,01.17,0.508
2014-03-26 00:59:00,4682E-2,5C000410,-0724,1157,8897,021.3,045.1,0.165,745.5,01.17,0.508
2014-03-26 01:00:00,4685E-2,5C000410,-0724,1157,9047,021.3,045.1,0.165,745.4,01.17,0.508
2014-03-26 01:01:00,4705E-2,5C000410,-0724,1159,8967,021.3,045.1,0.165,745.4,01.17,0.508
2014-03-26 01:02:00,4712E-2,5C000410,-0724,1161,9009,021.4,045.1,0.165,745.4,01.17,0.508
2014-03-26 01:03:00,4635E-2,5C000410,-0724,1164,8942,021.3,045.1,0.165,745.4,01.17,0.508
2014-03-26 01:04:00,4761E-2,5C000410,-0724,1164,8830,021.3,045.1,0.165,745.4,01.17,0.508
2014-03-26 01:05:00,4747E-2,5C000410,-0724,1166,9001,021.3,045.1,0.165,745.5,01.17,0.508
2014-03-26 01:06:00,4731E-2,5C000410,-0724,1167,8895,021.3,045.1,0.165,745.5,01.17,0.508
2014-03-26 01:07:00,4740E-2,5C000410,-0724,1168,8888,021.3,045.1,0.165,745.4,01.17,0.508
2014-03-26 01:08:00,4714E-2,5C000410,-0724,1171,8731,021.3,045.1,0.165,745.3,01.17,0.508
2014-03-26 01:09:00,4789E-2,5C000410,-0724,1171,8748,021.3,045.1,0.165,745.5,01.17,0.508
2014-03-26 01:10:00,4754E-2,5C000410,-0724,1172,8745,021.3,045.1,0.165,745.5,01.17,0.508
2014-03-26 01:11:00,4770E-2,5C000410,-0724,1174,8689,021.3,045.1,0.165,745.4,01.17,0.508
2014-03-26 01:12:00,4778E-2,5C000410,-0724,1175,8672,021.3,045.1,0.165,745.4,01.17,0.508
2014-03-26 01:13:00,4784E-2,5C000410,-0724,1176,8875,021.3,045.1,0.165,745.5,01.17,0.508
2014-03-26 01:14:00,4822E-2,5C000410,-0724,1176,8794,021.3,045.1,0.165,745.5,01.17,0.508
2014-03-26 01:15:00,4779E-2,5C000410,-0724,1179,8784,021.4,045.1,0.165,745.4,01.17,0.508
2014-03-26 01:16:00,4769E-2,5C000410,-0724,1181,8691,021.4,045.1,0.165,745.5,01.17,0.508
2014-03-26 01:17:00,4858E-2,5C000410,-0724,1181,8828,021.3,045.1,0.165,745.5,01.17,0.508
2014-03-26 01:18:00,4812E-2,5C000410,-0724,1184,8710,021.3,045.1,0.165,745.5,01.17,0.508
2014-03-26 01:19:00,4801E-2,5C000410,-0724,1187,8707,021.4,045.1,0.165,745.5,01.17,0.508
2014-03-26 01:20:00,4880E-2,5C000410,-0724,1188,8706,021.3,045.1,0.165,745.5,01.17,0.508
2014-03-26 01:21:00,4826E-2,5C000410,-0724,1191,8668,021.4,045.1,0.165,745.4,01.17,0.508
2014-03-26 01:22:00,4843E-2,5C000410,-0724,1192,8601,021.4,045.1,0.165,745.4,01.17,0.508
2014-03-26 01:23:00,4876E-2,5C000410,-0724,1193,8560,021.4,045.1,0.165,745.5,01.17,0.508
2014-03-26 01:24:00,4883E-2,5C000410,-0724,1193,8481,021.4,045.1,0.165,745.5,01.17,0.508
2014-03-26 01:25:00,4885E-2,5C000410,-0724,1195,8602,021.4,045.1,0.165,745.4,01.17,0.508
2014-03-26 01:26:00,4889E-2,5C000410,-0724,1196,8610,021.4,045.1,0.165,745.4,01.17,0.508
2014-03-26 01:27:00,4878E-2,5C000410,-0724,1197,8541,021.4,045.1,0.165,745.4,01.17,0.508
2014-03-26 01:28:00,4861E-2,5C000410,-0724,1197,8581,021.4,045.1,0.165,745.4,01.17,0.508
2014-03-26 01:29:00,4871E-2,5C000410,-0724,1199,8494,021.4,045.1,0.165,745.4,01.17,0.508
2014-03-26 01:30:00,4942E-2,5C000490,-0724,1201,8580,021.4,045.1,0.165,745.4,01.17,0.508
2014-03-26 01:31:00,4850E-2,5C000410,-0724,1197,8564,021.4,045.1,0.165,745.4,01.17,0.508
2014-03-26 01:32:00,4846E-2,5C000410,-0724,1197,8562,021.4,045.1,0.165,745.4,01.17,0.508
2014-03-26 01:33:00,4840E-2,5C000410,-0724,1197,8555,021.4,045.1,0.165,745.5,01.17,0.508
2014-03-26 01:34:00,4843E-2,5C000410,-0724,1200,8533,021.4,045.1,0.165,745.4,01.17,0.508
2014-03-26 01:35:00,4871E-2,5C000490,-0724,1202,8546,021.4,045.1,0.165,745.5,01.17,0.508
2014-03-26 01:36:00,4925E-2,5C000490,-0724,1204,8478,021.4,045.1,0.165,745.5,01.17,0.508
2014-03-26 01:37:00,4891E-2,5C000490,-0724,1205,8491,021.4,045.1,0.165,745.4,01.17,0.508
2014-03-26 01:38:00,4951E-2,5C000490,-0724,1207,8496,021.4,045.1,0.165,745.4,01.17,0.508
2014-03-26 01:39:00,4927E-2,5C000490,-0724,1210,8413,021.4,045.1,0.165,745.4,01.17,0.508
2014-03-26 01:40:00,4901E-2,5C000490,-0724,1211,8531,021.4,045.1,0.165,745.4,01.17,0.508
2014-03-26 01:41:00,4940E-2,5C000490,-0724,1213,8398,021.4,045.1,0.165,745.4,01.17,0.508
2014-03-26 01:42:00,4919E-2,5C000490,-0724,1215,8461,021.4,045.1,0.165,745.3,01.17,0.508
2014-03-26 01:43:00,4931E-2,5C000490,-0724,1217,8438,021.4,045.1,0.165,745.4,01.17,0.508
2014-03-26 01:44:00,4961E-2,5C000490,-0724,1221,8371,021.4,045.1,0.165,745.3,01.17,0.508
2014-03-26 01:45:00,4942E-2,5C000490,-0724,1222,8269,021.4,045.1,0.165,745.3,01.17,0.508
2014-03-26 01:46:00,4940E-2,5C000490,-0724,1220,8319,021.4,045.1,0.165,745.4,01.17,0.508
2014-03-26 01:47:00,4959E-2,5C000490,-0724,1220,8301,021.4,045.1,0.165,745.4,01.17,0.508
2014-03-26 01:48:00,4953E-2,5C000490,-0724,1221,8339,021.4,045.1,0.165,745.4,01.17,0.508
2014-03-26 01:49:00,4900E-2,5C000490,-0724,1224,8314,021.4,045.1,0.165,745.4,01.17,0.508
2014-03-26 01:50:00,4923E-2,5C000490,-0724,1226,8237,021.4,045.1,0.165,745.3,01.17,0.508
2014-03-26 01:51:00,4900E-2,5C000490,-0724,1228,8274,021.4,045.1,0.165,745.3,01.17,0.508
2014-03-26 01:52:00,4973E-2,5C000490,-0724,1231,8209,021.4,045.1,0.165,745.3,01.17,0.508
2014-03-26 01:53:00,4958E-2,5C000490,-0724,1234,8134,021.4,045.1,0.165,745.4,01.17,0.508
2014-03-26 01:54:00,4901E-2,5C000490,-0724,1236,8106,021.4,045.1,0.165,745.3,01.17,0.508
2014-03-26 01:55:00,4948E-2,5C000490,-0724,1235,8212,021.4,045.1,0.165,745.4,01.17,0.508
2014-03-26 01:56:00,4965E-2,5C000490,-0724,1237,8295,021.4,045.1,0.165,745.5,01.17,0.508
2014-03-26 01:57:00,4953E-2,5C000490,-0724,1239,8151,021.4,045.2,0.165,745.3,01.17,0.508
2014-03-26 01:58:00,5005E-2,5C000490,-0724,1241,8095,021.4,045.1,0.165,745.3,01.17,0.508
2014-03-26 01:59:00,4956E-2,5C000490,-0724,1245,8015,021.5,045.1,0.165,745.3,01.17,0.508
2014-03-26 02:00:00,4925E-2,5C000490,-0724,1244,8202,021.5,045.1,0.165,745.3,01.17,0.508
2014-03-26 02:01:00,4934E-2,5C000490,-0724,1246,8138,021.5,045.1,0.165,745.3,01.17,0.508
2014-03-26 02:02:00,4959E-2,5C000490,-0724,1246,8221,021.5,045.1,0.165,745.4,01.17,0.508
2014-03-26 02:03:00,5022E-2,5C000490,-0724,1245,8131,021.5,045.1,0.165,745.4,01.17,0.508
2014-03-26 02:04:00,5027E-2,5C000490,-0724,1248,8090,021.5,045.1,0.165,745.3,01.17,0.508
2014-03-26 02:05:00,5050E-2,5C000490,-0724,1248,8041,021.5,045.1,0.165,745.3,01.17,0.508
2014-03-26 02:06:00,5026E-2,5C000490,-0724,1249,8136,021.5,045.1,0.165,745.3,01.17,0.508
2014-03-26 02:07:00,5087E-2,5C000490,-0724,1250,8073,021.5,045.2,0.165,745.4,01.17,0.508
2014-03-26 02:08:00,4993E-2,5C000490,-0724,1250,8135,021.5,045.1,0.165,745.3,01.17,0.508
2014-03-26 02:09:00,5048E-2,5C000490,-0724,1252,8087,021.5,045.1,0.165,745.2,01.17,0.508
2014-03-26 02:10:00,5050E-2,5C000490,-0724,1254,8152,021.5,045.1,0.165,745.2,01.17,0.508
2014-03-26 02:11:00,5083E-2,5C000490,-0724,1254,8015,021.5,045.1,0.165,745.3,01.17,0.508
2014-03-26 02:12:00,5020E-2,5C000490,-0724,1256,7962,021.5,045.1,0.165,745.3,01.17,0.508
2014-03-26 02:13:00,5063E-2,5C000490,-0724,1257,7981,021.5,045.1,0.165,745.4,01.17,0.508
2014-03-26 02:14:00,5041E-2,5C000490,-0724,1256,7938,021.5,045.1,0.165,745.3,01.17,0.508
2014-03-26 02:15:00,5029E-2,5C000490,-0724,1256,8016,021.5,045.1,0.165,745.3,01.17,0.508
2014-03-26 02:16:00,4965E-2,5C000490,-0724,1259,7999,021.5,045.1,0.165,745.3,01.17,0.508
2014-03-26 02:17:00,5005E-2,5C000490,-0724,1261,7960,021.5,045.1,0.165,745.3,01.17,0.508
2014-03-26 02:18:00,5044E-2,5C000490,-0724,1263,7937,021.5,045.1,0.165,745.3,01.17,0.508
2014-03-26 02:19:00,5024E-2,5C000490,-0724,1264,7893,021.5,045.1,0.165,745.4,01.17,0.508
2014-03-26 02:20:00,5016E-2,5C000490,-0724,1266,7869,021.6,045.2,0.165,745.4,01.17,0.508
2014-03-26 02:21:00,5021E-2,5C000490,-0724,1267,7774,021.6,045.1,0.165,745.3,01.17,0.508
2014-03-26 02:22:00,5002E-2,5C000490,-0724,1271,7814,021.6,045.1,0.165,745.2,01.17,0.508
2014-03-26 02:23:00,5046E-2,5C000490,-0724,1272,7916,021.6,045.1,0.165,745.3,01.17,0.508
2014-03-26 02:24:00,4952E-2,5C000490,-0724,1275,7778,021.6,045.1,0.165,745.3,01.17,0.508
2014-03-26 02:25:00,4983E-2,5C000490,-0724,1278,7735,021.6,045.1,0.165,745.3,01.17,0.508
2014-03-26 02:26:00,4963E-2,5C000490,-0724,1280,7701,021.6,045.1,0.165,745.4,01.17,0.508
2014-03-26 02:27:00,4992E-2,5C000490,-0724,1281,7733,021.6,045.1,0.165,745.3,01.17,0.508
2014-03-26 02:28:00,4915E-2,5C000490,-0724,1282,7734,021.6,045.2,0.165,745.3,01.17,0.508
2014-03-26 02:29:00,4977E-2,5C000490,-0724,1285,7709,021.6,045.1,0.165,745.4,01.17,0.508
2014-03-26 02:30:00,5055E-2,5C000490,-0724,1286,7711,021.6,045.1,0.165,745.2,01.17,0.508
2014-03-26 02:31:00,4967E-2,5C000490,-0724,1289,7640,021.6,045.1,0.165,745.2,01.17,0.508
2014-03-26 02:32:00,4951E-2,5C000490,-0724,1290,7630,021.6,045.1,0.165,745.3,01.17,0.508
2014-03-26 02:33:00,4994E-2,5C000490,-0724,1293,7609,021.6,045.1,0.165,745.3,01.17,0.508
2014-03-26 02:34:00,4989E-2,5C000490,-0724,1296,7612,021.6,045.1,0.165,745.3,01.17,0.508
2014-03-26 02:35:00,4984E-2,5C000490,-0724,1298,7582,021.6,045.1,0.165,745.3,01.17,0.508
2014-03-26 02:36:00,4999E-2,5C000490,-0724,1299,7563,021.6,045.1,0.165,745.3,01.17,0.508
2014-03-26 02:37:00,4988E-2,5C000490,-0724,1301,7569,021.6,045.1,0.165,745.3,01.17,0.508
2014-03-26 02:38:00,4997E-2,5C000490,-0724,1301,7577,021.6,045.1,0.165,745.3,01.17,0.508
2014-03-26 02:39:00,5017E-2,5C000490,-0724,1301,7584,021.7,045.1,0.165,745.2,01.17,0.508
2014-03-26 02:40:00,4996E-2,5C000490,-0724,1301,7623,021.6,045.1,0.165,745.3,01.17,0.508
2014-03-26 02:41:00,5027E-2,5C000490,-0724,1302,7279,021.7,045.1,0.165,745.3,01.17,0.508
2014-03-26 02:42:00,5028E-2,5C000490,-0724,1306,7565,021.7,045.1,0.165,745.3,01.17,0.508
2014-03-26 02:43:00,5074E-2,5C000490,-0724,1308,7568,021.7,045.1,0.165,745.3,01.17,0.508
2014-03-26 02:44:00,4952E-2,5C000490,-0724,1310,7519,021.7,045.1,0.165,745.4,01.17,0.508
2014-03-26 02:45:00,5019E-2,5C000490,-0724,1306,7602,021.7,045.2,0.165,745.2,01.17,0.508
2014-03-26 02:46:00,4997E-2,5C000490,-0724,1300,7540,021.7,045.1,0.164,745.3,01.17,0.508
2014-03-26 02:47:00,4987E-2,5C000490,-0724,1300,7589,021.7,045.1,0.165,745.4,01.17,0.508
2014-03-26 02:48:00,4995E-2,5C000490,-0724,1302,7616,021.7,045.2,0.165,745.3,01.17,0.508
2014-03-26 02:49:00,5046E-2,5C000490,-0724,1302,7441,021.7,045.1,0.164,745.3,01.17,0.508
2014-03-26 02:50:00,5051E-2,5C000490,-0724,1304,7478,021.7,045.1,0.164,745.2,01.17,0.508
2014-03-26 02:51:00,5073E-2,5C000490,-0724,1306,7546,021.7,045.1,0.164,745.3,01.17,0.508
2014-03-26 02:52:00,5009E-2,5C000490,-0724,1309,7503,021.7,045.1,0.164,745.4,01.17,0.508
2014-03-26 02:53:00,5083E-2,5C000490,-0724,1309,7481,021.7,045.1,0.164,745.3,01.17,0.508
2014-03-26 02:54:00,5009E-2,5C000490,-0724,1312,7451,021.7,045.1,0.164,745.3,01.17,0.508
2014-03-26 02:55:00,5022E-2,5C000490,-0724,1312,7405,021.7,045.1,0.164,745.3,01.17,0.508
2014-03-26 02:56:00,5051E-2,5C000490,-0724,1311,7465,021.7,045.1,0.164,745.3,01.17,0.508
2014-03-26 02:57:00,5086E-2,5C000490,-0724,1313,7464,021.7,045.2,0.164,745.3,01.17,0.508
2014-03-26 02:58:00,5036E-2,5C000490,-0724,1314,7444,021.7,045.1,0.164,745.3,01.17,0.508
2014-03-26 02:59:00,5016E-2,5C000490,-0724,1316,7322,021.7,045.1,0.164,745.2,01.17,0.508
2014-03-26 03:00:00,5030E-2,5C000490,-0724,1318,7330,021.8,045.1,0.164,745.3,01.17,0.508
2014-03-26 03:01:00,5071E-2,5C000490,-0724,1321,7413,021.8,045.1,0.164,745.3,01.17,0.508
2014-03-26 03:02:00,5014E-2,5C000490,-0724,1322,7394,021.8,045.1,0.164,745.3,01.17,0.508
2014-03-26 03:03:00,5067E-2,5C000490,-0724,1324,7311,021.8,045.1,0.164,745.3,01.17,0.508
2014-03-26 03:04:00,5067E-2,5C000490,-0724,1324,7268,021.8,045.1,0.164,745.3,01.17,0.508
2014-03-26 03:05:00,4998E-2,5C000490,-0724,1324,7333,021.8,045.1,0.164,745.3,01.17,0.508
2014-03-26 03:06:00,5064E-2,5C000490,-0724,1326,7264,021.8,045.1,0.164,745.3,01.17,0.508
2014-03-26 03:07:00,5007E-2,5C000490,-0724,1328,7386,021.8,045.1,0.164,745.3,01.17,0.508
2014-03-26 03:08:00,5041E-2,5C000490,-0724,1329,7300,021.8,045.1,0.164,745.3,01.17,0.508
2014-03-26 03:09:00,5042E-2,5C000490,-0724,1331,7302,021.8,045.1,0.164,745.3,01.17,0.508
2014-03-26 03:10:00,5000E-2,5C000490,-0724,1333,7284,021.8,045.1,0.164,745.2,01.17,0.508
2014-03-26 03:11:00,5051E-2,5C000490,-0724,1334,7201,021.8,045.1,0.164,745.2,01.17,0.508
2014-03-26 03:12:00,5036E-2,5C000490,-0724,1334,7179,021.8,045.1,0.164,745.3,01.17,0.508
2014-03-26 03:13:00,4968E-2,5C000490,-0724,1334,7193,021.8,045.1,0.164,745.3,01.17,0.508
2014-03-26 03:14:00,4979E-2,5C000490,-0724,1335,7187,021.8,045.1,0.164,745.3,01.17,0.508
2014-03-26 03:15:00,4925E-2,5C000490,-0724,1338,7128,021.8,045.1,0.164,745.2,01.17,0.508
2014-03-26 03:16:00,4849E-2,5C000490,-0724,1338,7110,021.9,045.1,0.164,745.3,01.17,0.508
2014-03-26 03:17:00,4837E-2,5C000490,-0724,1340,7173,021.9,045.1,0.164,745.3,01.17,0.508
2014-03-26 03:18:00,4867E-2,5C000490,-0724,1341,7136,021.8,045.2,0.164,745.4,01.17,0.508
2014-03-26 03:19:00,4855E-2,5C000490,-0724,1343,7199,021.9,045.1,0.164,745.3,01.17,0.508
2014-03-26 03:20:00,4900E-2,5C000490,-0724,1344,7212,021.9,045.1,0.164,745.2,01.17,0.508
2014-03-26 03:21:00,4856E-2,5C000490,-0724,1345,7096,021.9,045.1,0.164,745.3,01.17,0.508
2014-03-26 03:22:00,4825E-2,5C000490,-0724,1347,7093,021.9,045.1,0.164,745.3,01.17,0.508
2014-03-26 03:23:00,4853E-2,5C000490,-0724,1347,7097,021.9,045.1,0.164,745.2,01.17,0.508
2014-03-26 03:24:00,4831E-2,5C000490,-0724,1348,7068,021.9,045.1,0.164,745.3,01.17,0.508
2014-03-26 03:25:00,4829E-2,5C000490,-0724,1349,7010,021.9,045.1,0.164,745.3,01.17,0.508
2014-03-26 03:26:00,4829E-2,5C000490,-0724,1350,7084,021.9,045.1,0.164,745.3,01.17,0.508
2014-03-26 03:27:00,4839E-2,5C000490,-0724,1351,7050,021.9,045.1,0.164,745.3,01.17,0.508
2014-03-26 03:28:00,4808E-2,5C000490,-0724,1352,7108,021.9,045.1,0.164,745.4,01.17,0.508
2014-03-26 03:29:00,4858E-2,5C000490,-0724,1353,7077,021.9,045.1,0.164,745.3,01.17,0.508
2014-03-26 03:30:00,4881E-2,5C000490,-0724,1354,6969,021.9,045.1,0.164,745.3,01.17,0.508
2014-03-26 03:31:00,4878E-2,5C000490,-0724,1354,6942,021.9,045.1,0.164,745.3,01.17,0.508
2014-03-26 03:32:00,4826E-2,5C000490,-0724,1354,7041,021.9,045.1,0.164,745.3,01.17,0.508
2014-03-26 03:33:00,4809E-2,5C000490,-0724,1356,7030,021.9,045.2,0.164,745.3,01.17,0.508
2014-03-26 03:34:00,4834E-2,5C000490,-0724,1357,6977,022.0,045.1,0.164,745.2,01.17,0.508
2014-03-26 03:35:00,4818E-2,5C000490,-0724,1359,6917,022.0,045.1,0.164,745.2,01.17,0.508
2014-03-26 03:36:00,4794E-2,5C000490,-0724,1360,6988,022.0,045.1,0.164,745.3,01.17,0.508
2014-03-26 03:37:00,4754E-2,5C000490,-0724,1361,6955,022.0,045.1,0.164,745.3,01.17,0.508
2014-03-26 03:38:00,4715E-2,5C000490,-0724,1362,6825,022.0,045.1,0.164,745.2,01.17,0.508
2014-03-26 03:39:00,4806E-2,5C000490,-0724,1362,6928,022.0,045.2,0.164,745.3,01.17,0.508
2014-03-26 03:40:00,4816E-2,5C000490,-0724,1363,6852,022.0,045.2,0.164,745.2,01.17,0.508
2014-03-26 03:41:00,4755E-2,5C000490,-0724,1364,6922,022.0,045.1,0.164,745.3,01.17,0.508
2014-03-26 03:42:00,4800E-2,5C000490,-0724,1364,6849,022.0,045.2,0.164,745.3,01.17,0.508
2014-03-26 03:43:00,4772E-2,5C000490,-0724,1363,6866,022.0,045.1,0.164,745.2,01.17,0.508
2014-03-26 03:44:00,4766E-2,5C000490,-0724,1364,6915,022.0,045.1,0.164,745.3,01.17,0.508
2014-03-26 03:45:00,4687E-2,5C000490,-0724,1364,6808,022.0,045.1,0.164,745.2,01.17,0.508
2014-03-26 03:46:00,4685E-2,5C000490,-0724,1364,6925,022.0,045.1,0.164,745.2,01.17,0.508
2014-03-26 03:47:00,4708E-2,5C000490,-0724,1364,6849,022.0,045.1,0.164,745.2,01.17,0.508
2014-03-26 03:48:00,4696E-2,5C000490,-0724,1364,6949,022.0,045.1,0.164,745.2,01.17,0.508
2014-03-26 03:49:00,4629E-2,5C000490,-0724,1354,7124,022.0,045.1,0.164,745.2,01.17,0.508
2014-03-26 03:50:00,4581E-2,5C000490,-0724,1348,7074,022.0,045.1,0.164,745.3,01.17,0.508
2014-03-26 03:51:00,4610E-2,5C000490,-0724,1349,7114,022.0,045.2,0.164,745.3,01.17,0.508
2014-03-26 03:52:00,4586E-2,5C000490,-0724,1350,7037,022.0,045.1,0.164,745.3,01.17,0.508
2014-03-26 03:53:00,4567E-2,5C000490,-0724,1351,7089,022.0,045.1,0.164,745.3,01.17,0.508
2014-03-26 03:54:00,4664E-2,5C000490,-0724,1352,7080,022.0,045.1,0.164,745.3,01.17,0.508
2014-03-26 03:55:00,4575E-2,5C000490,-0724,1354,7051,022.1,045.2,0.164,745.3,01.17,0.508
2014-03-26 03:56:00,4535E-2,5C000490,-0724,1355,6997,022.1,045.1,0.163,745.3,01.17,0.508
2014-03-26 03:57:00,4571E-2,5C000490,-0724,1355,6913,022.1,045.2,0.163,745.3,01.17,0.508
2014-03-26 03:58:00,4628E-2,5C000490,-0724,1356,7039,022.1,045.2,0.164,745.2,01.17,0.508
2014-03-26 03:59:00,4623E-2,5C000490,-0724,1358,6993,022.1,045.1,0.163,745.3,01.17,0.508
2014-03-26 04:00:00,4694E-2,5C000490,-0724,1356,7065,022.1,045.2,0.163,745.3,01.17,0.508
2014-03-26 04:01:00,4736E-2,5C000490,-0724,1352,6956,022.1,045.1,0.163,745.3,01.17,0.508
2014-03-26 04:02:00,4719E-2,5C000490,-0724,1353,7085,022.1,045.1,0.163,745.3,01.17,0.508
2014-03-26 04:03:00,4662E-2,5C000490,-0724,1353,6895,022.1,045.2,0.163,745.3,01.17,0.508
2014-03-26 04:04:00,4658E-2,5C000490,-0724,1355,7029,022.1,045.2,0.163,745.3,01.17,0.508
2014-03-26 04:05:00,4724E-2,5C000490,-0724,1357,6983,022.1,045.1,0.163,745.3,01.17,0.508
2014-03-26 04:06:00,4694E-2,5C000490,-0724,1358,6893,022.1,045.1,0.163,745.3,01.17,0.508
2014-03-26 04:07:00,4687E-2,5C000490,-0724,1359,7015,022.1,045.2,0.163,745.4,01.17,0.508
2014-03-26 04:08:00,4744E-2,5C000490,-0724,1360,6874,022.2,045.1,0.163,745.3,01.17,0.508
2014-03-26 04:09:00,4693E-2,5C000490,-0724,1362,6854,022.1,045.2,0.163,745.2,01.17,0.508
2014-03-26 04:10:00,4680E-2,5C000490,-0724,1363,6878,022.2,045.2,0.163,745.3,01.17,0.508
2014-03-26 04:11:00,4722E-2,5C000490,-0724,1365,6897,022.2,045.1,0.163,745.3,01.17,0.508
2014-03-26 04:12:00,4691E-2,5C000490,-0724,1365,6811,022.2,045.1,0.163,745.2,01.17,0.508
2014-03-26 04:13:00,4669E-2,5C000490,-0724,1366,6973,022.2,045.1,0.163,745.2,01.17,0.508
2014-03-26 04:14:00,4650E-2,5C000490,-0724,1366,6914,022.2,045.2,0.163,745.3,01.17,0.508
2014-03-26 04:15:00,4663E-2,5C000490,-0724,1367,6866,022.2,045.2,0.163,745.3,01.17,0.508
2014-03-26 04:16:00,4720E-2,5C000490,-0724,1367,6782,022.2,045.1,0.163,745.2,01.17,0.508
2014-03-26 04:17:00,4700E-2,5C000490,-0724,1368,6774,022.2,045.1,0.163,745.2,01.17,0.508
2014-03-26 04:18:00,4697E-2,5C000490,-0724,1368,6786,022.2,045.1,0.163,745.2,01.17,0.508
2014-03-26 04:19:00,4716E-2,5C000490,-0724,1369,6809,022.2,045.2,0.163,745.2,01.17,0.508
2014-03-26 04:20:00,4711E-2,5C000490,-0724,1370,6771,022.2,045.1,0.163,745.2,01.17,0.508
2014-03-26 04:21:00,4630E-2,5C000490,-0724,1370,6746,022.2,045.1,0.163,745.2,01.17,0.508
2014-03-26 04:22:00,4718E-2,5C000490,-0724,1370,6879,022.2,045.1,0.163,745.2,01.17,0.508
2014-03-26 04:23:00,4643E-2,5C000490,-0724,1368,6908,022.2,045.1,0.163,745.2,01.17,0.508